RH
8 7 7 6 6 7 6 6 8 9 9 9 10 11 13 29 68 100 100 100 100 100 100 100 99 85 77 64 51 46 45 50 73 73 74 63 57 57 55 51 46 42 38 35 34
8 7 7 7 6 6 7 7 8 8 10 10 10 10 12 15 38 100 100 100 100 100 100 100 100 98 87 86 77 48 47 62 68 64 63 53 54 52 50 48 47 41 36 32 30
7 7 6 6 6 6 7 8 8 9 10 10 10 10 10 14 21 88 100 100 100 100 100 100 100 100 100 90 83 80 72 67 59 53 47 47 48 47 46 47 54 43 37 32 30
7 7 6 6 5 6 7 8 8 9 10 11 10 12 11 12 16 28 79 100 100 100 100 100 100 100 100 100 100 100 100 96 71 56 51 45 41 44 41 42 50 41 36 32 27
6 6 6 6 5 6 7 7 9 10 10 12 12 12 12 13 17 22 34 96 100 100 100 100 100 100 100 100 100 95 98 100 91 64 59 60 57 45 42 41 37 41 31 34 40
5 5 5 6 7 5 5 7 8 10 11 12 12 12 14 15 14 24 33 41 93 100 100 100 100 100 100 100 100 100 100 100 100 98 91 81 84 72 57 40 35 36 35 29 55
5 5 4 4 4 4 4 4 6 9 12 11 13 13 14 17 20 24 28 47 48 95 100 100 100 100 100 100 100 100 100 100 100 100 100 100 89 90 83 51 54 59 72 71 54
5 4 4 3 2 2 2 2 3 6 11 12 12 13 16 14 18 27 30 39 60 65 98 100 100 100 100 100 100 100 100 100 100 100 97 88 100 100 99 78 71 73 78 93 98
4 3 3 2 2 3 3 3 3 3 8 14 13 14 15 17 20 24 33 38 69 67 78 93 100 100 100 100 100 100 100 100 100 100 100 99 100 100 100 98 96 97 100 94 87
3 3 2 2 2 2 2 3 3 3 4 10 16 14 15 20 17 21 27 33 70 67 78 87 90 97 100 100 100 100 100 100 100 100 99 100 100 100 100 100 100 100 100 100 98
3 3 2 2 2 2 2 3 4 3 3 7 21 21 20 16 16 17 25 23 54 74 65 85 95 85 100 100 100 100 100 100 100 100 99 91 96 100 100 100 100 100 100 97 100
3 3 2 2 2 2 2 3 4 4 4 6 20 25 21 17 17 20 26 26 38 98 78 76 97 100 95 99 100 100 100 100 100 100 100 100 100 100 100 100 100 100 100 100 95
3 2 2 2 2 2 2 3 4 4 4 7 28 36 25 19 21 26 25 29 45 88 100 80 77 85 86 91 95 100 100 100 100 100 100 100 100 100 100 100 100 100 100 100 100
3 2 2 2 2 1 2 3 3 4 3 10 30 34 26 19 22 22 27 24 29 74 98 85 76 72 90 93 95 95 100 100 100 100 100 100 100 100 100 100 100 100 100 100 100
4 2 2 2 2 1 2 3 3 4 4 14 31 32 27 27 32 33 31 34 32 57 90 99 100 100 82 81 93 99 100 99 87 99 100 100 100 100 100 100 100 100 100 100 100
3 2 2 2 2 1 2 3 3 4 6 17 28 30 31 38 43 40 38 43 42 40 85 96 90 100 97 75 82 90 97 86 94 95 91 96 93 100 100 100 99 100 100 99 98
4 2 3 2 2 2 2 2 4 4 13 26 35 40 42 56 64 47 44 36 40 54 90 92 87 90 100 96 84 86 88 92 97 94 97 89 80 89 99 94 92 86 86 84 79
3 2 3 2 2 2 2 3 5 12 22 38 43 44 44 48 49 36 35 35 50 69 80 85 84 95 100 100 100 89 93 97 97 84 74 76 74 82 68 67 74 69 68 64 59
4 3 3 2 2 2 3 4 9 20 37 45 42 42 58 65 51 40 34 38 69 59 65 69 78 81 89 99 94 90 90 95 94 86 82 77 84 77 68 62 61 60 65 60 57
4 3 4 3 3 3 3 4 12 30 44 59 77 78 69 58 46 40 38 44 50 65 58 71 77 87 89 90 98 98 91 82 76 76 79 80 81 94 84 60 50 49 50 54 56
4 3 4 4 4 4 4 5 15 37 55 70 75 73 72 54 45 38 39 39 42 55 68 65 68 77 82 92 100 99 85 61 56 63 76 98 100 67 64 72 70 70 70 69 59
5 4 6 6 5 5 5 8 27 45 48 65 75 79 52 52 54 57 50 46 54 59 64 70 78 85 99 95 94 90 86 78 66 80 80 77 94 76 79 80 74 80 77 57 52
6 5 7 7 7 7 7 17 38 49 55 70 74 70 76 90 94 82 81 74 79 78 71 65 78 89 91 94 85 70 66 79 96 89 82 92 92 95 83 67 66 61 54 45 35
7 7 8 9 10 10 11 20 36 51 65 71 67 77 83 94 97 100 100 96 94 94 93 88 84 90 98 97 92 90 96 97 93 97 84 75 69 64 66 57 47 52 51 45 51
9 11 8 11 14 19 27 40 48 60 72 76 75 82 84 94 100 100 100 100 100 97 95 94 99 100 100 98 90 94 91 78 85 82 70 65 63 59 54 50 61 74 71 62 57
10 13 13 12 15 23 34 51 62 72 75 70 80 78 80 97 96 100 94 98 99 98 99 100 98 93 84 75 75 80 76 68 68 69 72 71 59 61 57 62 58 67 85 66 48
10 14 18 14 14 21 32 48 65 75 79 80 89 83 89 92 95 98 100 100 100 93 83 72 74 83 85 83 76 64 67 70 73 79 74 78 89 85 67 59 62 92 77 91 72
Wind_Speed
77 69 60 55 46 39 35 37 41 50 62 75 84 91 94 100 102 101 103 104 102 103 101 101 102 102 99 96 91 91 86 82 83 85 88 87 78 74 71 70 70 70 69 70 68
82 70 67 60 53 46 38 38 41 47 58 69 80 89 93 96 102 101 106 103 102 102 100 101 99 100 97 95 93 91 85 86 89 90 91 85 77 74 72 73 76 73 71 70 71
80 75 72 68 58 50 42 38 42 46 54 66 75 84 93 93 97 109 104 103 101 101 102 100 102 96 95 94 91 87 82 88 91 94 91 86 81 79 76 76 81 79 75 74 74
81 76 74 70 65 53 47 40 41 47 53 62 72 80 87 92 93 102 107 103 103 100 100 100 99 99 94 92 91 88 85 88 91 91 89 88 85 82 79 79 85 84 79 78 77
84 80 74 69 67 61 47 44 41 45 51 58 67 76 83 89 94 96 102 108 105 100 98 98 98 99 96 94 94 89 88 88 90 91 87 86 85 85 83 84 86 86 80 80 80
87 82 75 67 58 60 56 43 42 43 48 55 64 72 80 86 94 93 96 104 108 103 100 96 94 94 97 95 90 87 88 88 86 86 86 87 85 84 80 84 85 86 85 82 78
90 86 77 65 54 52 52 49 41 44 48 52 61 69 77 87 90 92 95 98 104 107 100 96 96 90 91 90 88 88 87 87 86 88 86 86 83 77 80 84 81 82 81 79 81
91 86 76 64 51 42 40 46 37 44 48 51 56 63 74 81 88 92 91 93 97 103 107 103 94 92 89 88 86 84 84 84 88 89 87 85 74 77 82 81 79 80 79 75 74
92 86 75 60 44 35 31 34 34 43 49 52 51 60 74 77 86 90 91 91 94 96 103 106 101 94 90 88 86 82 80 81 83 82 83 78 73 79 77 76 75 75 73 74 74
94 86 73 56 42 33 26 27 31 40 49 51 48 57 66 75 81 86 90 89 92 95 95 102 102 100 92 86 83 83 83 81 79 78 75 70 68 76 76 74 72 72 72 72 71
92 85 69 54 46 33 23 23 28 36 43 42 43 47 62 71 75 80 85 87 90 91 90 91 98 95 94 89 88 85 81 77 76 76 73 72 69 75 79 73 71 72 73 72 71
92 83 66 56 48 33 21 19 23 29 36 41 46 51 60 68 74 78 79 83 85 85 87 84 89 98 97 96 92 86 79 78 79 77 72 72 69 73 76 74 73 74 75 77 77
94 82 63 58 48 31 17 14 21 28 36 41 48 49 53 61 67 71 74 79 86 87 85 82 83 93 96 95 92 90 85 82 80 75 72 74 71 70 74 74 73 75 76 77 79
93 78 63 57 43 28 14 10 21 27 36 45 47 46 45 53 60 66 67 72 77 83 86 81 80 78 86 91 92 90 88 86 85 80 74 72 69 74 74 77 77 80 80 80 83
88 73 62 54 39 22 10 5 16 23 35 47 48 43 43 47 52 54 57 63 67 77 83 82 79 75 77 81 86 88 85 85 87 86 83 83 76 79 81 82 83 84 84 85 87
85 68 61 52 37 15 5 5 12 24 37 44 42 36 36 42 44 45 52 59 63 68 79 80 81 78 74 74 75 81 84 85 82 83 81 86 84 78 84 87 87 88 91 91 92
83 66 57 47 39 22 3 16 20 26 35 36 33 36 39 41 37 41 47 51 56 64 73 79 76 77 75 72 69 73 78 80 79 80 81 84 83 85 85 89 90 92 93 93 94
79 63 51 43 36 21 7 21 30 35 35 37 33 36 36 35 35 40 42 46 55 61 65 70 68 69 75 74 69 68 67 68 70 73 73 74 75 82 86 88 89 91 92 94 95
76 60 49 40 29 15 12 27 33 36 35 30 31 33 28 27 30 31 36 42 51 55 58 58 59 63 65 71 72 69 66 70 71 72 72 74 75 78 80 81 82 84 86 88 89
71 55 49 39 29 15 5 20 35 36 36 35 31 27 27 27 29 32 34 40 47 53 53 53 54 57 59 61 61 60 61 62 63 62 64 65 69 79 79 76 75 77 80 83 86
66 53 47 38 28 12 6 18 32 38 38 35 32 31 26 26 28 30 31 34 37 45 49 50 49 51 52 53 53 55 56 55 53 53 53 54 57 63 66 68 71 75 77 82 86
66 52 44 35 26 13 3 19 32 34 32 29 24 18 18 24 24 24 26 28 29 34 39 41 41 43 47 51 52 53 52 53 49 50 53 51 61 59 62 64 66 67 73 76 79
64 52 40 32 24 14 6 24 31 31 31 28 25 24 23 20 20 23 25 26 27 28 30 31 31 31 31 31 34 36 37 36 38 40 40 44 49 51 54 55 55 60 67 71 74
64 52 39 28 21 15 6 21 27 28 26 23 23 21 24 28 28 27 28 27 27 27 27 26 26 26 28 30 30 29 28 29 30 33 37 34 40 38 43 45 45 44 50 54 57
60 52 40 28 21 10 17 19 23 25 22 22 24 24 27 26 26 26 28 26 26 25 24 24 24 25 26 27 25 25 26 25 26 27 28 29 31 34 32 33 29 32 37 38 38
56 47 40 24 14 7 19 22 23 21 20 21 24 26 28 30 32 33 31 28 26 24 23 23 24 24 23 21 21 22 20 20 21 25 22 18 22 21 22 24 25 26 29 33 28
52 44 38 26 18 3 18 21 22 21 20 22 25 28 33 35 34 30 25 22 22 23 24 23 22 23 22 21 19 18 18 19 18 18 16 10 10 15 16 23 23 22 29 27 23
Wind_Direction
340 337 333 328 322 310 290 267 250 239 233 230 225 222 220 220 220 220 220 220 221 224 227 229 230 232 231 232 233 233 233 235 236 239 241 242 243 243 245 249 251 252 252 252 255
340 337 332 327 320 310 292 272 250 240 233 230 228 224 220 218 218 219 220 220 221 223 225 227 228 230 231 231 233 234 233 233 235 238 241 242 244 245 246 248 251 251 254 254 256
340 337 331 325 317 308 294 271 253 239 234 229 228 225 221 218 216 218 219 220 220 223 224 226 229 230 230 232 232 234 233 235 236 239 242 244 243 244 245 248 252 252 253 256 257
338 335 330 323 314 305 291 272 252 240 232 230 227 226 222 218 217 218 219 219 220 222 225 224 227 229 231 232 232 233 233 235 238 240 241 244 244 246 246 247 252 254 254 258 259
338 334 329 321 312 302 290 273 254 239 232 228 226 224 223 218 218 218 217 219 219 220 223 224 225 228 229 230 231 233 233 235 238 240 242 245 247 246 247 248 251 256 253 256 257
337 333 328 319 306 298 291 271 254 238 231 228 225 223 222 220 218 217 217 219 219 220 221 223 223 226 229 230 231 231 233 235 238 240 241 243 244 246 248 249 250 255 257 256 260
337 333 328 320 309 293 284 274 251 235 229 226 223 221 221 221 218 216 218 217 219 219 220 222 223 224 227 228 228 229 232 234 235 237 237 240 244 248 250 250 252 254 257 257 258
337 334 330 324 313 298 283 271 251 234 226 222 221 219 220 219 219 218 216 217 218 219 220 221 222 222 225 228 229 229 231 233 236 237 239 240 243 245 246 249 251 254 256 256 254
339 336 333 327 319 304 286 268 248 232 223 218 216 216 220 218 217 218 216 217 217 218 220 221 222 222 224 225 228 229 230 231 234 235 239 239 239 244 247 249 250 250 251 251 251
341 338 335 332 327 314 291 266 246 230 221 214 210 214 216 218 218 217 218 217 217 219 218 220 222 222 223 224 228 226 227 231 233 236 237 237 237 244 245 244 245 246 247 251 253
344 340 337 337 333 319 293 258 242 232 220 209 207 212 215 219 218 217 217 217 216 220 218 219 222 223 224 225 226 227 228 231 233 235 237 239 237 242 245 245 246 249 251 252 254
346 342 341 342 336 322 298 250 230 230 213 201 200 207 212 214 216 216 214 217 217 217 222 220 220 222 224 225 226 226 228 229 231 235 235 238 239 243 247 248 249 249 250 251 252
347 345 344 345 338 327 304 251 215 215 203 189 197 208 208 212 214 214 214 215 214 213 219 221 220 221 223 225 227 227 228 229 231 232 234 238 238 240 244 247 249 249 251 254 256
347 345 347 347 341 337 313 242 216 207 192 184 194 204 206 210 211 215 216 216 215 215 220 223 224 223 223 225 227 228 232 234 232 231 232 235 235 242 244 246 249 250 251 253 255
347 346 350 349 347 347 348 250 211 198 183 183 191 194 199 204 207 210 211 212 214 217 218 221 221 222 225 225 226 228 232 235 236 236 236 239 238 251 245 245 247 250 252 254 255
349 348 353 353 353 348 61 104 178 169 171 179 185 188 194 200 203 206 205 208 213 214 217 221 223 222 228 229 228 228 231 234 238 241 243 244 241 244 252 250 250 251 252 254 256
349 353 356 357 354 346 103 135 146 150 162 166 172 185 189 191 194 201 205 208 210 212 213 219 222 225 224 232 231 230 230 232 236 239 242 244 245 245 250 254 255 254 255 258 260
351 356 359 357 1 355 72 129 135 145 152 165 175 178 187 189 196 202 202 206 209 210 212 216 222 225 227 228 232 234 234 236 239 241 245 248 249 250 249 252 255 257 259 260 261
353 358 0 3 5 9 129 142 141 148 152 162 173 176 171 184 195 199 202 204 208 211 213 215 218 221 226 229 235 238 237 236 240 244 247 250 252 254 254 254 256 258 260 262 264
355 0 3 6 6 7 147 156 148 150 153 155 160 160 171 182 190 194 196 202 208 212 215 217 218 220 224 227 232 236 239 241 243 245 249 253 254 254 256 260 262 264 266 266 267
359 4 6 9 10 25 123 148 146 148 153 154 160 163 170 180 182 189 194 200 205 212 217 217 219 220 224 228 230 234 238 243 247 248 249 252 254 259 263 264 264 266 269 270 271
1 10 12 14 16 16 76 143 147 149 150 145 147 152 171 171 173 177 186 191 196 205 210 215 218 225 231 234 237 238 241 246 247 246 247 252 257 261 263 268 270 273 275 273 272
1 12 16 18 17 19 127 148 148 150 149 148 154 158 157 159 162 172 177 179 184 190 196 199 200 201 207 212 219 226 231 237 242 247 251 251 257 263 267 272 270 268 271 272 276
0 10 16 20 24 32 95 149 147 147 145 150 154 157 160 163 167 173 173 175 178 179 183 187 188 193 203 210 217 220 225 232 242 247 250 253 258 261 268 272 277 285 289 291 290
359 6 12 14 24 89 139 142 147 146 149 155 156 161 160 157 163 168 176 176 178 179 179 179 183 189 199 208 217 225 230 231 226 238 251 255 265 274 277 282 289 295 298 303 307
0 2 7 7 6 119 155 152 154 154 156 160 160 163 158 158 157 157 159 160 169 176 179 188 198 204 210 209 198 198 205 220 237 248 259 275 275 278 288 300 290 305 318 311 317
359 359 1 353 348 284 175 170 167 167 164 166 161 161 157 157 156 157 159 166 178 183 184 183 177 176 180 182 194 204 220 236 232 226 227 257 296 293 304 320 323 327 321 339 340